CFG9UA EDDF-LEBL

Flight info

Callsign CFG9UA
Flight time N/A
Altitude 37000
Route ANEKI2L/18 ANEKI Y163 HERBI Y164 MOPAN DCT LUTIX DCT BENOT DCT NEMOS DCT GEVEA/N0402F270 DCT INCUS DCT BALSI/N0444F350 DCT RETNO DCT TUPOX DCT MTG DCT DIVKO/N0449F370 DCT NILDU DCT BISBA
Aircraft A320/M-SDE3FGHIRWY/LB1

Departure

Time 2026-05-05 12:00
Airport Frankfurt Main Airport (EDDF)

Arrival

Time N/A
Airport Josep Tarradellas Barcelona-El Prat Airport (LEBL)
Time Latitude Longitude Altitude Speed Heading
2026-05-05 11:24 50.04042 8.55545 358 ft 0 kts 160°
2026-05-05 11:53 50.04022 8.55557 357 ft 4 kts 160°
2026-05-05 11:53 50.03993 8.55574 356 ft 5 kts 159°
2026-05-05 11:53 50.03963 8.55555 356 ft 5 kts 234°
2026-05-05 11:53 50.03936 8.55479 357 ft 9 kts 248°
2026-05-05 11:54 50.03915 8.55392 349 ft 9 kts 250°
2026-05-05 11:54 50.03886 8.55269 352 ft 13 kts 250°
2026-05-05 11:54 50.03855 8.55139 350 ft 12 kts 250°
2026-05-05 11:54 50.03823 8.55006 354 ft 16 kts 250°
2026-05-05 11:55 50.03781 8.54829 349 ft 19 kts 249°
2026-05-05 11:55 50.03734 8.54636 355 ft 20 kts 249°
2026-05-05 11:55 50.03683 8.54424 348 ft 20 kts 250°
2026-05-05 11:55 50.03637 8.54228 343 ft 19 kts 249°
2026-05-05 11:56 50.03594 8.54048 343 ft 17 kts 249°
2026-05-05 11:56 50.03551 8.53869 340 ft 18 kts 249°
2026-05-05 11:56 50.03506 8.53683 339 ft 16 kts 250°
2026-05-05 11:56 50.03467 8.53517 337 ft 17 kts 250°
2026-05-05 11:57 50.03423 8.53334 337 ft 19 kts 249°
2026-05-05 11:57 50.03380 8.53154 336 ft 19 kts 249°
2026-05-05 11:57 50.03334 8.52963 335 ft 19 kts 250°
2026-05-05 11:57 50.03299 8.52817 332 ft 10 kts 250°
2026-05-05 11:58 50.03287 8.52763 332 ft 2 kts 250°
2026-05-05 11:58 50.03282 8.52742 333 ft 2 kts 250°
2026-05-05 11:58 50.03270 8.52690 334 ft 5 kts 250°
2026-05-05 11:58 50.03257 8.52638 332 ft 6 kts 250°
2026-05-05 11:59 50.03236 8.52594 334 ft 4 kts 194°
2026-05-05 11:59 50.03193 8.52595 335 ft 15 kts 180°
2026-05-05 11:59 50.02827 8.52599 335 ft 88 kts 179°
2026-05-05 11:59 50.02007 8.52606 335 ft 145 kts 179°
2026-05-05 12:00 50.00874 8.52620 633 ft 167 kts 181°
2026-05-05 12:00 49.99766 8.52626 1503 ft 153 kts 180°
2026-05-05 12:00 49.98685 8.52658 2042 ft 164 kts 178°
2026-05-05 12:00 49.97466 8.52747 2355 ft 187 kts 177°
2026-05-05 12:01 49.96093 8.52858 2703 ft 207 kts 177°
2026-05-05 12:01 49.94669 8.52970 3511 ft 201 kts 177°
2026-05-05 12:01 49.93278 8.53077 4310 ft 200 kts 178°
2026-05-05 12:01 49.91884 8.53182 5059 ft 201 kts 178°
2026-05-05 12:02 49.90448 8.53289 5524 ft 217 kts 178°
2026-05-05 12:02 49.88878 8.53399 6040 ft 232 kts 178°
2026-05-05 12:02 49.87249 8.53515 6843 ft 236 kts 178°
2026-05-05 12:02 49.85602 8.53633 7707 ft 238 kts 178°
2026-05-05 12:03 49.83936 8.53751 8557 ft 241 kts 178°
2026-05-05 12:03 49.82257 8.53869 9398 ft 243 kts 178°
2026-05-05 12:03 49.80554 8.53983 10194 ft 246 kts 178°
2026-05-05 12:03 49.78834 8.54095 10950 ft 249 kts 178°
2026-05-05 12:04 49.77078 8.54012 11548 ft 261 kts 185°
2026-05-05 12:04 49.75188 8.53770 11832 ft 284 kts 185°
2026-05-05 12:04 49.73134 8.53499 12093 ft 308 kts 185°
2026-05-05 12:04 49.70946 8.53207 12347 ft 328 kts 185°
2026-05-05 12:05 49.68628 8.52896 12934 ft 337 kts 185°
2026-05-05 12:05 49.66279 8.52582 13660 ft 342 kts 185°
2026-05-05 12:05 49.63928 8.52271 14333 ft 345 kts 185°
2026-05-05 12:05 49.61533 8.51953 15041 ft 346 kts 185°
2026-05-05 12:06 49.59126 8.51632 15742 ft 348 kts 185°
2026-05-05 12:06 49.56705 8.51308 16419 ft 351 kts 185°
2026-05-05 12:06 49.54259 8.50980 17095 ft 353 kts 185°
2026-05-05 12:06 49.51803 8.50654 17762 ft 356 kts 185°
2026-05-05 12:07 49.49327 8.50330 18392 ft 358 kts 185°
2026-05-05 12:07 49.46831 8.50006 18962 ft 361 kts 185°
2026-05-05 12:07 49.44322 8.49680 19523 ft 364 kts 185°
2026-05-05 12:07 49.41779 8.49349 20102 ft 367 kts 185°
2026-05-05 12:08 49.39228 8.49018 20688 ft 369 kts 185°
2026-05-05 12:08 49.36661 8.48689 21255 ft 372 kts 185°
2026-05-05 12:08 49.34072 8.48353 21830 ft 375 kts 185°
2026-05-05 12:08 49.31505 8.48016 22390 ft 378 kts 185°
2026-05-05 12:09 49.28875 8.47671 22946 ft 381 kts 185°
2026-05-05 12:09 49.26240 8.47327 23463 ft 384 kts 185°
2026-05-05 12:09 49.23582 8.46981 23899 ft 387 kts 185°
2026-05-05 12:09 49.20894 8.46631 24345 ft 388 kts 185°
2026-05-05 12:10 49.18203 8.46282 24819 ft 389 kts 184°
2026-05-05 12:10 49.15501 8.45929 25270 ft 390 kts 184°
2026-05-05 12:10 49.12791 8.45577 25693 ft 391 kts 185°
2026-05-05 12:10 49.10072 8.45224 26104 ft 393 kts 184°
2026-05-05 12:11 49.07346 8.44870 26507 ft 395 kts 185°
2026-05-05 12:11 49.04634 8.44152 26893 ft 397 kts 192°
2026-05-05 12:11 49.01938 8.43205 27289 ft 399 kts 192°
2026-05-05 12:11 48.99227 8.42260 27686 ft 400 kts 192°
2026-05-05 12:12 48.96509 8.41316 28062 ft 402 kts 192°
2026-05-05 12:12 48.93774 8.40365 28436 ft 404 kts 192°
2026-05-05 12:12 48.91029 8.39408 28806 ft 406 kts 192°
2026-05-05 12:12 48.88306 8.38462 29154 ft 407 kts 191°
2026-05-05 12:13 48.85497 8.37489 29496 ft 409 kts 191°
2026-05-05 12:13 48.82751 8.36538 29834 ft 411 kts 191°
2026-05-05 12:13 48.79925 8.35559 30123 ft 412 kts 191°
2026-05-05 12:13 48.77124 8.34583 30392 ft 414 kts 191°
2026-05-05 12:14 48.74353 8.33590 30624 ft 416 kts 192°
2026-05-05 12:14 48.71533 8.32559 30872 ft 417 kts 192°
2026-05-05 12:14 48.68712 8.31517 31108 ft 418 kts 192°
2026-05-05 12:14 48.65886 8.30471 31384 ft 418 kts 192°
2026-05-05 12:15 48.63062 8.29429 31713 ft 417 kts 192°
2026-05-05 12:15 48.60251 8.28400 32080 ft 415 kts 192°
2026-05-05 12:15 48.57450 8.27386 32433 ft 413 kts 192°
2026-05-05 12:15 48.54659 8.26378 32744 ft 412 kts 192°
2026-05-05 12:16 48.51881 8.25375 33084 ft 410 kts 192°
2026-05-05 12:16 48.49111 8.24369 33434 ft 408 kts 192°
2026-05-05 12:16 48.46353 8.23363 33781 ft 407 kts 192°
2026-05-05 12:16 48.43606 8.22359 34091 ft 406 kts 192°
2026-05-05 12:17 48.40861 8.21359 34357 ft 405 kts 192°
2026-05-05 12:17 48.38116 8.20362 34562 ft 406 kts 192°
2026-05-05 12:17 48.35370 8.19363 34777 ft 407 kts 193°
2026-05-05 12:17 48.32611 8.18356 34862 ft 408 kts 193°
2026-05-05 12:18 48.27107 8.16344 34878 ft 406 kts 193°
2026-05-05 12:18 48.21817 8.13376 34881 ft 408 kts 204°
2026-05-05 12:19 48.16723 8.09597 34881 ft 409 kts 204°
2026-05-05 12:19 48.11618 8.05823 34882 ft 410 kts 205°
2026-05-05 12:20 48.06490 8.02043 34885 ft 411 kts 205°
2026-05-05 12:20 48.01359 7.98271 34887 ft 411 kts 205°
2026-05-05 12:21 47.96222 7.94503 34884 ft 411 kts 205°
2026-05-05 12:21 47.91093 7.90745 34889 ft 411 kts 205°
2026-05-05 12:22 47.85952 7.86996 34893 ft 412 kts 205°
2026-05-05 12:22 47.80808 7.83240 34887 ft 412 kts 205°
2026-05-05 12:23 47.75666 7.79494 34879 ft 411 kts 205°
2026-05-05 12:23 47.70527 7.75767 34874 ft 411 kts 205°
2026-05-05 12:24 47.66255 7.72673 34870 ft 411 kts 205°
2026-05-05 12:24 47.61118 7.68965 34863 ft 410 kts 205°
2026-05-05 12:25 47.55982 7.65268 34858 ft 410 kts 205°
2026-05-05 12:25 47.50846 7.61570 34868 ft 411 kts 205°
2026-05-05 12:26 47.45712 7.57875 34869 ft 410 kts 205°
2026-05-05 12:26 47.40576 7.54202 34876 ft 410 kts 205°
2026-05-05 12:27 47.35427 7.50530 34886 ft 411 kts 205°
2026-05-05 12:27 47.30290 7.46863 34916 ft 409 kts 206°
2026-05-05 12:28 47.25162 7.43212 34902 ft 409 kts 206°
2026-05-05 12:28 47.20032 7.39560 34895 ft 410 kts 206°
2026-05-05 12:29 47.15388 7.34754 34887 ft 411 kts 224°
2026-05-05 12:29 47.11763 7.28307 34891 ft 412 kts 230°
2026-05-05 12:30 47.08201 7.21747 34894 ft 412 kts 230°
2026-05-05 12:30 47.04625 7.15186 34906 ft 411 kts 230°
2026-05-05 12:31 47.01050 7.08641 34905 ft 411 kts 230°
2026-05-05 12:31 46.97475 7.02102 34909 ft 411 kts 229°
2026-05-05 12:32 46.93915 6.95615 34949 ft 411 kts 230°
2026-05-05 12:32 46.90180 6.89449 34942 ft 409 kts 219°
2026-05-05 12:33 46.85802 6.84211 34934 ft 408 kts 218°
2026-05-05 12:33 46.81395 6.78967 34927 ft 408 kts 218°
2026-05-05 12:34 46.76992 6.73725 34921 ft 408 kts 218°
2026-05-05 12:34 46.72595 6.68510 34932 ft 407 kts 219°
2026-05-05 12:35 46.68213 6.63330 34937 ft 405 kts 219°
2026-05-05 12:35 46.63841 6.58160 34935 ft 404 kts 219°
2026-05-05 12:36 46.59477 6.53003 34935 ft 404 kts 219°
2026-05-05 12:36 46.55109 6.47872 34932 ft 403 kts 218°
2026-05-05 12:37 46.50741 6.42764 34946 ft 404 kts 218°
2026-05-05 12:37 46.46360 6.37640 34934 ft 404 kts 218°
2026-05-05 12:38 46.41992 6.32525 34927 ft 404 kts 218°
2026-05-05 12:38 46.37601 6.27400 34925 ft 404 kts 218°
2026-05-05 12:39 46.33224 6.22302 34924 ft 404 kts 218°
2026-05-05 12:39 46.28842 6.17216 34923 ft 403 kts 218°
2026-05-05 12:40 46.23997 6.13271 34923 ft 404 kts 200°
2026-05-05 12:40 46.18474 6.11690 34916 ft 406 kts 191°
2026-05-05 12:41 46.12947 6.10472 34917 ft 406 kts 191°
2026-05-05 12:41 46.07368 6.09216 34940 ft 406 kts 192°
2026-05-05 12:42 46.01786 6.07968 34943 ft 406 kts 191°
2026-05-05 12:42 45.96210 6.06735 34941 ft 405 kts 192°
2026-05-05 12:43 45.90677 6.05513 34948 ft 404 kts 192°
2026-05-05 12:43 45.85117 6.04295 34950 ft 404 kts 192°
2026-05-05 12:44 45.79562 6.03076 34941 ft 404 kts 192°
2026-05-05 12:44 45.74023 6.01848 34944 ft 403 kts 193°
2026-05-05 12:45 45.68482 6.00627 34922 ft 403 kts 192°
2026-05-05 12:45 45.62938 5.99413 34923 ft 403 kts 192°
2026-05-05 12:46 45.57391 5.98201 35171 ft 405 kts 193°
2026-05-05 12:46 45.54603 5.97587 35412 ft 405 kts 193°
2026-05-05 12:46 45.51815 5.96975 35617 ft 406 kts 193°
2026-05-05 12:47 45.49022 5.96363 35829 ft 407 kts 193°
2026-05-05 12:47 45.46239 5.95713 36007 ft 407 kts 194°
2026-05-05 12:47 45.43459 5.94924 36229 ft 406 kts 195°
2026-05-05 12:47 45.40702 5.94045 36448 ft 405 kts 197°
2026-05-05 12:48 45.37955 5.93127 36667 ft 405 kts 197°
2026-05-05 12:48 45.35216 5.92208 36865 ft 405 kts 197°
2026-05-05 12:48 45.29699 5.90417 36930 ft 407 kts 196°
2026-05-05 12:49 45.24168 5.88698 36931 ft 407 kts 196°
2026-05-05 12:49 45.18643 5.87001 36931 ft 406 kts 196°
2026-05-05 12:50 45.13132 5.85302 36928 ft 405 kts 196°
2026-05-05 12:50 45.07627 5.83599 36927 ft 405 kts 196°
2026-05-05 12:51 45.02129 5.81898 36893 ft 403 kts 197°
2026-05-05 12:51 44.96633 5.80207 36929 ft 404 kts 197°
2026-05-05 12:52 44.91149 5.78525 36934 ft 403 kts 197°
2026-05-05 12:52 44.85670 5.76847 36934 ft 402 kts 197°
2026-05-05 12:53 44.80216 5.75170 36937 ft 401 kts 197°
2026-05-05 12:53 44.74807 5.73510 36944 ft 399 kts 197°
2026-05-05 12:54 44.66674 5.71032 36970 ft 398 kts 197°
2026-05-05 12:55 44.61258 5.69384 36945 ft 398 kts 197°
2026-05-05 12:55 44.55836 5.67737 36940 ft 399 kts 197°
2026-05-05 12:56 44.50406 5.66097 36945 ft 399 kts 197°
2026-05-05 12:56 44.44983 5.64456 36937 ft 399 kts 197°
2026-05-05 12:57 44.39563 5.62814 36940 ft 399 kts 197°
2026-05-05 12:57 44.34361 5.60348 36938 ft 394 kts 205°
2026-05-05 12:58 44.29265 5.57556 36937 ft 393 kts 205°
2026-05-05 12:58 44.24162 5.54762 36947 ft 394 kts 205°
2026-05-05 12:59 44.19060 5.51981 36945 ft 393 kts 205°
2026-05-05 12:59 44.13974 5.49218 36955 ft 393 kts 205°
2026-05-05 13:00 44.06342 5.45056 36939 ft 392 kts 205°
2026-05-05 13:01 43.96175 5.39548 36951 ft 392 kts 205°
2026-05-05 13:01 43.91096 5.36799 36947 ft 392 kts 205°
2026-05-05 13:02 43.86015 5.34044 36931 ft 392 kts 205°
2026-05-05 13:02 43.80922 5.31302 36958 ft 392 kts 205°
2026-05-05 13:03 43.75839 5.28565 36948 ft 392 kts 205°
2026-05-05 13:03 43.70761 5.25828 36925 ft 392 kts 205°
2026-05-05 13:04 43.65674 5.23098 36933 ft 393 kts 205°
2026-05-05 13:04 43.60579 5.20372 36936 ft 392 kts 205°
2026-05-05 13:05 43.55488 5.17654 36940 ft 393 kts 205°
2026-05-05 13:05 43.50385 5.14943 36923 ft 393 kts 205°
2026-05-05 13:06 43.45320 5.12251 36929 ft 393 kts 205°
2026-05-05 13:06 43.40224 5.09536 36936 ft 392 kts 206°
2026-05-05 13:07 43.35569 5.05802 36941 ft 387 kts 217°
2026-05-05 13:07 43.31133 5.01600 36921 ft 387 kts 217°
2026-05-05 13:08 43.26689 4.97422 36934 ft 387 kts 217°
2026-05-05 13:08 43.22238 4.93247 36965 ft 388 kts 217°
2026-05-05 13:09 43.17787 4.89074 36956 ft 388 kts 217°
2026-05-05 13:09 43.13336 4.84905 36951 ft 388 kts 217°
2026-05-05 13:10 43.08878 4.80744 36940 ft 387 kts 217°
2026-05-05 13:10 43.04543 4.76405 36950 ft 385 kts 224°
2026-05-05 13:11 43.01197 4.72329 36951 ft 385 kts 224°
2026-05-05 13:11 42.97198 4.67490 36957 ft 385 kts 223°
2026-05-05 13:12 42.93180 4.62645 36963 ft 385 kts 223°
2026-05-05 13:12 42.89162 4.57816 36964 ft 384 kts 223°
2026-05-05 13:13 42.85163 4.53003 36969 ft 383 kts 223°
2026-05-05 13:13 42.81197 4.48236 36963 ft 383 kts 223°
2026-05-05 13:14 42.77214 4.43462 36958 ft 383 kts 223°
2026-05-05 13:14 42.73213 4.38678 36955 ft 383 kts 223°
2026-05-05 13:15 42.69232 4.33923 36953 ft 383 kts 223°
2026-05-05 13:15 42.65232 4.29159 36951 ft 382 kts 223°
2026-05-05 13:16 42.61229 4.24400 36946 ft 382 kts 223°
2026-05-05 13:16 42.57228 4.19640 36946 ft 383 kts 223°
2026-05-05 13:17 42.53216 4.14877 36861 ft 387 kts 223°
2026-05-05 13:17 42.51163 4.12443 36307 ft 396 kts 223°
2026-05-05 13:17 42.49089 4.09988 35614 ft 392 kts 223°
2026-05-05 13:18 42.47058 4.07598 35186 ft 382 kts 223°
2026-05-05 13:18 42.45071 4.05264 34739 ft 374 kts 223°
2026-05-05 13:18 42.43123 4.02974 34285 ft 367 kts 223°
2026-05-05 13:18 42.41214 4.00725 33825 ft 361 kts 223°
2026-05-05 13:19 42.39334 3.98508 33287 ft 356 kts 223°
2026-05-05 13:19 42.37481 3.96321 32714 ft 351 kts 223°
2026-05-05 13:19 42.35650 3.94161 32147 ft 348 kts 223°
2026-05-05 13:19 42.33835 3.92023 31547 ft 344 kts 223°
2026-05-05 13:20 42.32035 3.89914 31049 ft 340 kts 223°
2026-05-05 13:20 42.30246 3.87822 30233 ft 344 kts 223°
2026-05-05 13:20 42.28427 3.85689 29321 ft 348 kts 223°
2026-05-05 13:20 42.26678 3.83636 28604 ft 347 kts 223°
2026-05-05 13:21 42.24858 3.81502 27908 ft 345 kts 223°
2026-05-05 13:21 42.23048 3.79382 27276 ft 344 kts 223°
2026-05-05 13:21 42.21265 3.77298 26907 ft 336 kts 223°
2026-05-05 13:21 42.19512 3.75251 26433 ft 331 kts 223°
2026-05-05 13:22 42.17778 3.73225 25912 ft 329 kts 223°
2026-05-05 13:22 42.16053 3.71210 25389 ft 327 kts 223°
2026-05-05 13:22 42.14335 3.69206 24871 ft 326 kts 223°
2026-05-05 13:22 42.12624 3.67216 24349 ft 324 kts 223°
2026-05-05 13:23 42.10943 3.65263 23858 ft 323 kts 223°
2026-05-05 13:23 42.09222 3.63266 23423 ft 322 kts 223°
2026-05-05 13:23 42.07617 3.61167 23008 ft 322 kts 227°
2026-05-05 13:23 42.06071 3.58995 22605 ft 321 kts 227°
2026-05-05 13:24 42.04549 3.56859 22207 ft 320 kts 227°
2026-05-05 13:24 42.02991 3.54675 21804 ft 319 kts 227°
2026-05-05 13:24 42.01476 3.52558 21421 ft 318 kts 227°
2026-05-05 13:24 41.99923 3.50397 21026 ft 317 kts 227°
2026-05-05 13:25 41.98412 3.48302 20649 ft 316 kts 227°
2026-05-05 13:25 41.96867 3.46159 20267 ft 315 kts 227°
2026-05-05 13:25 41.95369 3.44075 19900 ft 314 kts 226°
2026-05-05 13:25 41.93836 3.41942 19529 ft 313 kts 226°
2026-05-05 13:26 41.92344 3.39866 19140 ft 312 kts 227°
2026-05-05 13:26 41.90842 3.37779 18783 ft 311 kts 227°
2026-05-05 13:26 41.89339 3.35694 18425 ft 310 kts 226°
2026-05-05 13:26 41.87837 3.33611 18057 ft 310 kts 226°
2026-05-05 13:27 41.86338 3.31537 17653 ft 309 kts 226°
2026-05-05 13:27 41.84847 3.29477 17283 ft 307 kts 226°
2026-05-05 13:27 41.83358 3.27418 16970 ft 307 kts 226°
2026-05-05 13:27 41.81877 3.25363 16649 ft 306 kts 226°
2026-05-05 13:28 41.80403 3.23318 16349 ft 305 kts 226°
2026-05-05 13:28 41.78927 3.21280 16048 ft 304 kts 226°
2026-05-05 13:28 41.77458 3.19257 15745 ft 303 kts 226°
2026-05-05 13:28 41.75992 3.17238 15439 ft 302 kts 226°
2026-05-05 13:29 41.74528 3.15225 15145 ft 301 kts 226°
2026-05-05 13:29 41.73070 3.13218 14848 ft 300 kts 225°
2026-05-05 13:29 41.71615 3.11215 14552 ft 300 kts 225°
2026-05-05 13:29 41.70162 3.09217 14264 ft 299 kts 225°
2026-05-05 13:30 41.68710 3.07225 13979 ft 298 kts 225°
2026-05-05 13:30 41.67264 3.05239 13701 ft 298 kts 225°
2026-05-05 13:30 41.65824 3.03258 13382 ft 297 kts 225°
2026-05-05 13:30 41.64390 3.01282 13067 ft 296 kts 225°
2026-05-05 13:31 41.62964 2.99306 12754 ft 295 kts 225°
2026-05-05 13:31 41.61603 2.97410 12455 ft 294 kts 226°
2026-05-05 13:31 41.60201 2.95442 12152 ft 292 kts 226°
2026-05-05 13:31 41.58807 2.93468 11852 ft 291 kts 226°
2026-05-05 13:32 41.57499 2.91598 11574 ft 290 kts 227°
2026-05-05 13:32 41.56138 2.89628 11272 ft 288 kts 227°
2026-05-05 13:32 41.54828 2.87513 10277 ft 308 kts 236°
2026-05-05 13:32 41.53829 2.84862 9122 ft 331 kts 249°